Theta_e
287 287 286 287 287 287 287 287 287 287 288 287 287 287 287 287 287 287 287 287 287 286 286 285 285 285 285 285 285 285 284 284 284 283 283 283 283 282 283 282 282 282 282 282 281 281 281 281 281 281 281 281 281 281 281 281 281 281 281 281 281 281
287 287 287 286 286 286 287 287 287 286 287 287 287 287 287 286 286 286 286 286 286 285 285 285 285 285 284 284 284 284 283 283 283 283 282 282 282 282 282 281 281 281 281 281 280 280 280 280 280 280 280 280 280 280 280 280 279 279 279 280 281 281
287 287 287 287 287 287 287 286 286 286 287 287 287 286 286 286 286 286 286 285 285 284 284 284 284 284 284 283 283 283 283 282 282 282 282 282 281 281 281 280 280 280 280 279 279 279 279 279 279 279 279 279 278 278 278 278 278 278 278 279 278 279
287 287 287 287 286 286 286 286 287 286 286 287 286 286 286 286 286 286 285 285 285 284 284 284 283 283 283 283 282 282 282 281 281 281 280 280 280 280 279 279 279 279 279 278 278 278 278 278 278 277 277 277 277 277 278 277 277 277 277 277 277 278
288 287 286 286 286 286 286 286 286 286 286 286 287 286 286 286 286 286 285 285 284 284 283 283 282 282 282 282 281 280 280 280 279 279 279 279 279 279 278 278 278 277 277 277 277 277 277 277 276 276 276 276 276 276 276 277 276 276 276 276 277 277
287 286 286 286 286 286 286 286 286 287 286 286 286 286 286 286 286 285 285 284 284 283 282 282 282 282 282 281 280 279 279 279 278 278 278 278 278 277 277 277 276 276 276 276 276 276 276 275 275 275 276 275 275 275 275 276 276 276 276 276 276 276
286 286 286 286 286 286 286 286 286 286 286 286 286 286 286 286 286 285 284 284 283 282 282 282 282 281 281 280 280 278 278 278 278 277 276 277 277 276 276 276 276 275 276 275 275 275 275 275 274 274 275 275 275 275 275 275 276 276 276 276 276 276
287 286 286 286 286 286 286 286 286 286 286 286 286 286 285 285 285 284 284 284 283 282 282 281 281 281 280 279 278 278 277 277 276 276 276 276 275 275 275 275 275 275 274 274 274 274 274 274 274 274 274 274 274 275 275 275 276 276 276 276 276 276
286 286 286 286 286 286 286 286 286 286 286 285 285 285 284 284 284 284 284 283 283 282 282 281 281 280 279 279 278 277 276 276 275 275 275 275 274 274 274 274 273 274 273 273 273 273 273 273 273 273 273 273 274 275 275 275 275 275 275 275 275 276
287 286 286 286 286 286 286 286 286 286 285 284 284 284 284 285 284 284 283 283 283 282 282 281 281 280 279 278 277 276 275 275 274 274 274 273 273 273 273 273 272 273 273 272 272 272 272 272 272 273 273 273 274 275 275 275 274 275 275 275 275 275
287 286 286 286 286 286 286 286 286 285 285 285 285 284 284 285 284 283 283 283 282 282 282 280 280 279 278 276 276 275 274 274 273 273 273 272 272 272 272 271 271 271 272 272 271 271 272 271 272 272 272 273 274 275 274 275 274 274 274 274 275 275
287 287 286 286 286 286 285 285 285 285 285 284 285 284 284 284 284 283 283 283 283 282 281 279 278 277 276 275 274 274 273 273 272 272 272 271 271 271 271 270 271 271 271 271 271 271 271 271 271 270 271 274 274 274 275 274 274 274 274 274 274 274
287 287 286 286 286 286 286 286 286 286 286 285 285 285 285 284 284 283 283 283 282 281 280 278 277 277 275 275 274 273 272 272 271 271 270 270 269 269 269 269 270 270 270 270 270 270 270 270 270 270 273 274 275 275 274 274 274 274 274 274 274 273
287 287 286 286 286 286 286 286 286 286 286 287 286 286 285 284 284 283 283 283 281 280 279 278 276 275 274 273 272 271 271 270 269 269 269 269 269 269 269 269 269 269 269 269 269 269 270 270 270 271 272 273 275 275 275 274 274 273 273 274 273 273
288 288 287 287 287 287 287 287 287 286 287 287 287 286 284 284 284 284 283 282 280 279 278 277 275 274 273 272 271 270 269 268 268 268 268 268 269 268 268 269 268 268 269 268 268 268 269 269 269 270 272 273 274 275 275 274 274 273 273 273 272 272
288 288 288 287 287 287 288 288 287 288 288 288 287 285 284 284 283 283 283 281 279 278 277 276 274 273 272 271 270 269 268 268 268 269 269 268 268 268 268 267 267 267 267 267 267 267 268 268 268 270 272 273 274 275 275 274 274 273 272 272 272 271
288 288 288 288 288 288 288 287 288 288 287 286 284 284 283 283 283 282 281 279 278 277 275 274 273 272 271 269 269 268 268 268 268 267 268 268 268 268 267 267 266 266 265 266 266 266 266 267 268 270 271 272 273 275 275 273 272 271 271 271 272 271
289 288 288 289 288 287 287 287 287 287 286 285 283 282 282 282 282 281 279 278 277 275 275 274 273 271 270 269 268 268 268 268 267 267 268 267 267 267 266 266 266 265 265 265 264 264 265 267 268 269 270 272 273 274 273 272 271 271 271 270 271 271
289 289 288 287 287 286 286 286 286 285 283 282 282 281 281 281 280 279 278 277 276 274 274 273 272 271 270 269 268 267 268 268 267 267 267 266 267 267 266 265 265 265 264 264 263 263 264 265 266 268 270 272 273 273 271 271 271 270 270 270 271 271
287 287 287 286 286 286 285 285 284 283 281 280 280 279 279 279 279 279 277 277 276 274 274 273 272 270 269 268 267 267 268 268 268 266 266 266 266 266 265 264 264 264 263 263 262 263 262 263 266 268 270 271 272 272 271 271 270 270 270 270 271 272
285 284 284 284 283 284 284 283 282 281 280 279 279 278 278 278 279 278 277 277 275 274 273 272 271 270 269 268 268 267 267 266 266 266 265 265 265 264 264 264 264 263 263 263 262 263 263 263 264 267 269 270 271 272 271 271 270 270 270 270 271 272
282 281 282 282 283 282 281 281 281 280 280 279 278 277 277 278 279 279 278 277 275 273 272 271 269 269 268 267 267 266 266 266 265 264 264 264 265 264 264 263 263 261 262 262 262 262 263 263 263 265 268 270 271 273 272 271 270 270 270 271 271 272
283 283 283 283 282 280 280 280 280 279 279 278 277 277 278 279 280 279 277 275 273 271 270 270 268 267 267 267 266 265 264 265 265 264 263 262 263 263 263 261 261 261 261 262 262 263 263 263 263 264 268 270 271 272 272 271 271 272 272 272 272 273
281 282 281 281 280 279 279 279 279 279 279 277 276 277 280 280 279 277 275 273 271 270 268 267 267 266 265 264 264 264 263 263 263 263 262 263 263 261 260 260 261 262 262 263 263 263 263 264 265 265 267 270 271 272 274 273 273 273 273 272 272 273
280 280 281 280 278 278 278 278 278 279 278 276 277 279 279 279 277 275 273 272 270 268 266 266 264 264 263 262 263 263 263 262 261 261 261 261 260 260 259 260 260 261 261 262 263 264 264 264 265 267 268 270 271 273 274 275 274 275 274 273 272 273
281 280 281 279 277 277 277 277 277 278 276 277 279 279 277 276 274 273 271 269 268 266 265 263 263 262 262 262 262 262 262 262 261 260 261 261 261 262 262 263 262 262 262 262 263 264 265 266 267 268 269 270 272 273 274 274 275 276 274 274 273 273
280 280 280 278 275 275 275 276 277 276 275 278 279 276 274 272 271 269 269 268 266 265 264 262 262 261 261 261 261 261 262 260 259 262 262 260 262 262 263 263 263 262 263 263 263 264 265 267 268 269 270 271 272 272 273 274 275 276 276 274 273 273
279 278 279 277 275 274 274 275 277 276 277 279 277 275 272 270 268 268 268 267 265 264 262 261 261 260 260 260 261 262 263 263 261 263 264 262 263 262 262 263 263 262 262 262 263 264 266 267 268 269 269 270 271 271 273 274 275 275 275 274 273 273
277 277 277 277 276 274 273 273 275 277 279 276 275 272 270 268 268 268 268 266 265 263 261 261 262 261 259 259 261 262 262 263 263 263 263 263 263 262 262 262 261 262 262 262 263 264 266 267 268 268 269 270 270 271 271 272 273 274 274 273 272 271
277 277 277 277 278 275 273 273 273 274 275 273 272 269 268 267 268 268 267 266 264 263 261 262 261 261 261 260 260 261 261 261 262 262 263 263 263 263 263 262 262 262 263 263 264 265 266 266 267 268 269 270 270 271 272 273 273 272 272 271 271 267
276 277 277 278 279 277 273 272 273 273 273 271 269 268 267 268 267 268 267 265 263 263 262 263 262 262 263 262 260 262 263 262 261 262 262 263 263 264 264 264 264 263 263 264 264 265 265 266 266 268 271 271 273 272 272 272 272 272 272 271 272 266
277 277 277 278 279 277 274 273 272 272 272 269 267 267 268 268 267 267 266 264 263 263 261 262 262 262 263 263 262 261 260 261 264 263 262 262 263 265 267 266 264 264 264 264 265 265 265 266 268 272 273 273 273 274 274 274 275 274 272 272 271 266
276 276 276 277 277 276 274 273 272 271 269 268 266 266 268 268 267 267 266 263 263 262 261 262 262 262 262 262 262 262 262 262 263 266 268 267 266 267 268 269 270 270 270 266 265 267 271 273 273 273 273 273 273 273 274 274 274 273 272 271 267 265
275 275 275 277 276 275 274 272 272 270 268 267 266 266 267 267 268 268 267 264 264 262 262 262 262 261 261 261 261 261 261 262 263 264 267 268 269 270 271 271 272 272 272 273 272 271 270 272 273 273 272 272 273 273 273 273 272 271 270 270 267 263
276 276 276 276 275 274 273 272 271 268 266 266 265 265 266 266 267 267 267 265 264 263 262 262 262 261 261 261 261 261 261 261 262 263 265 266 268 268 270 270 271 271 272 272 272 272 272 272 272 272 272 272 272 273 273 272 270 269 269 267 264 261
277 277 275 274 273 272 271 270 270 267 266 264 264 264 265 265 266 267 267 266 264 263 263 262 262 262 262 262 262 261 261 261 262 262 263 263 264 264 265 267 268 269 269 269 270 270 270 270 271 271 271 271 272 272 272 269 266 267 266 264 261 260
275 274 273 271 271 269 269 269 268 265 264 263 263 263 264 264 264 265 264 262 263 264 264 263 264 263 263 262 261 260 260 260 260 260 259 260 261 263 264 263 264 266 266 265 266 267 268 269 270 270 270 270 271 270 269 267 264 262 262 261 260 260
271 271 270 268 269 268 268 268 264 263 263 262 262 262 263 263 263 264 265 264 262 263 264 264 263 263 263 262 261 260 260 260 260 259 260 259 259 259 259 260 261 261 263 264 266 267 268 268 269 269 269 270 270 268 267 263 262 261 261 260 260 259
Wind_Speed
11 10 10 9 8 8 8 8 7 7 7 8 9 11 11 11 8 8 7 7 6 6 7 7 6 6 6 5 5 5 5 5 4 4 3 3 2 2 2 2 2 2 2 2 2 2 2 2 2 3 3 3 3 3 2 3 4 4 4 3 4 4
12 12 11 11 10 9 8 9 8 9 8 9 9 9 9 9 10 9 9 7 7 7 7 6 6 6 6 5 5 5 5 5 4 4 3 3 2 2 2 2 2 2 2 2 2 2 2 3 3 3 4 4 4 4 4 4 5 5 5 4 4 3
11 10 9 9 8 8 8 8 9 9 8 9 9 11 11 10 10 9 8 7 8 8 8 7 6 6 5 6 5 5 5 5 4 3 3 2 2 1 1 2 1 2 2 2 2 3 3 4 5 4 4 4 4 4 4 5 5 5 4 4 5 4
10 10 9 8 8 8 10 9 9 9 10 9 10 10 10 11 10 9 9 8 8 8 8 8 6 6 5 6 5 5 5 4 3 3 2 3 2 1 1 1 1 2 3 2 3 4 4 4 4 4 4 4 4 4 3 4 5 5 5 4 5 5
9 10 11 11 12 11 12 10 10 10 11 10 10 10 11 10 10 9 8 8 8 9 8 7 6 6 6 6 5 5 4 3 3 2 2 2 2 2 1 2 2 2 3 2 3 3 3 3 3 3 3 3 4 4 4 4 4 5 5 5 6 6
8 9 12 13 12 12 12 11 10 10 10 11 10 11 12 11 10 9 9 8 9 9 8 7 7 7 6 6 5 5 4 3 3 2 2 2 2 2 2 2 2 2 2 2 2 2 3 3 3 3 3 3 4 4 5 4 4 4 5 5 6 6
12 12 12 13 12 11 12 12 12 12 11 11 11 11 11 10 9 9 9 10 10 9 8 8 7 7 6 6 5 5 5 4 3 2 2 2 2 2 1 1 1 1 1 1 2 3 3 3 3 3 3 3 3 4 4 5 5 5 5 5 5 6
12 12 13 12 12 12 12 12 12 12 12 12 11 11 10 9 9 10 10 10 9 9 9 8 7 7 7 6 5 6 4 4 3 3 2 2 2 1 1 1 1 1 2 1 2 3 3 3 3 3 4 4 4 4 5 4 5 5 5 6 5 6
15 16 15 13 13 13 12 13 13 12 12 12 11 9 9 10 10 10 10 10 9 9 9 8 7 7 7 6 5 5 4 3 3 3 3 2 2 1 1 0 0 1 1 2 2 3 3 3 3 3 4 4 4 4 5 5 5 6 5 5 6 6
14 14 15 15 14 13 12 12 12 13 12 12 10 10 10 8 10 10 10 10 9 8 8 7 7 7 6 5 5 4 4 3 3 3 3 2 2 2 1 0 0 1 1 1 2 3 3 3 3 3 3 4 4 5 5 5 6 6 6 6 6 6
14 16 15 14 14 14 14 12 11 10 9 10 10 10 11 10 11 11 10 9 9 8 8 7 6 6 6 6 5 5 4 4 3 3 3 2 2 1 1 0 1 1 1 2 2 3 3 3 3 2 3 5 6 6 6 6 7 7 8 7 7 7
12 12 13 13 14 15 13 12 11 11 11 12 11 11 10 10 11 11 10 10 9 8 7 7 6 7 6 6 5 5 4 4 4 3 3 3 2 2 1 0 1 1 2 2 3 3 3 2 2 3 7 8 6 7 6 7 7 7 8 9 9 8
12 12 12 13 15 15 13 12 12 12 14 13 12 12 11 11 11 11 10 11 8 8 8 7 7 7 7 6 5 4 4 4 3 3 3 3 2 2 1 1 2 2 1 2 3 4 3 3 2 6 9 9 10 8 7 7 7 7 8 8 9 9
12 14 15 15 15 16 14 14 14 13 14 13 12 11 10 11 11 11 11 10 8 8 8 7 7 7 6 6 5 5 4 4 4 3 3 3 3 2 2 2 2 2 2 2 3 4 4 4 4 8 9 10 10 10 8 7 7 7 7 8 8 8
15 15 14 14 15 16 16 15 11 12 14 14 13 9 10 11 11 10 10 9 9 9 8 7 7 6 6 5 5 5 4 4 4 4 4 4 3 2 3 3 2 3 2 3 3 4 4 4 5 8 10 10 11 11 10 7 7 7 7 8 8 8
10 11 14 14 14 15 15 15 17 17 14 11 9 11 10 11 10 10 9 8 9 8 8 8 6 6 6 5 5 5 5 4 4 4 3 3 3 3 3 3 3 3 3 3 3 4 5 5 6 9 10 11 11 11 10 7 8 7 7 8 8 8
13 13 14 15 15 14 10 12 12 8 7 9 10 10 10 10 10 9 9 9 8 7 7 8 7 6 6 5 5 5 5 5 4 4 4 4 4 4 4 3 3 3 3 3 3 4 5 5 7 9 11 11 11 11 10 6 6 6 7 7 8 9
13 14 14 11 9 9 10 11 10 9 9 8 9 9 9 9 9 9 8 8 8 9 9 8 7 6 6 6 6 5 5 5 5 5 4 3 3 3 3 2 3 3 4 3 4 4 6 5 7 10 11 11 11 11 6 5 6 6 7 7 8 9
8 8 6 7 9 9 10 9 8 8 8 8 7 7 7 8 8 9 10 9 10 10 9 9 8 7 7 6 6 6 6 6 5 5 4 4 4 4 4 3 3 3 3 4 4 5 6 6 7 10 11 11 11 8 5 6 6 6 7 8 8 9
4 4 6 7 8 9 8 8 9 9 8 9 9 8 9 8 10 10 9 11 10 10 9 9 8 8 7 7 7 7 6 5 4 5 5 4 4 4 4 3 3 4 4 5 5 5 5 6 8 11 12 11 10 8 6 5 6 7 7 8 9 8
6 6 6 7 8 9 8 9 10 9 8 9 9 9 9 10 11 11 12 11 11 10 9 7 8 8 7 7 7 6 6 6 5 4 4 3 3 3 3 3 3 3 4 4 5 7 7 7 8 11 11 11 10 8 5 5 6 7 7 8 9 10
7 6 8 9 9 8 9 8 9 11 11 9 8 8 10 12 13 13 10 8 9 8 7 7 8 8 9 8 6 5 5 5 4 5 4 4 3 3 3 3 3 3 4 4 5 5 5 6 6 8 11 11 10 10 6 6 6 7 9 9 10 10
7 8 9 7 7 8 9 7 8 9 9 9 8 11 13 13 10 8 9 8 8 8 8 7 8 11 7 6 6 6 5 5 5 5 4 4 3 3 2 3 3 3 4 4 5 5 6 6 6 7 10 11 10 10 8 6 7 8 8 8 9 8
4 3 3 5 7 8 7 7 11 9 9 8 11 14 13 9 8 8 7 7 8 8 8 9 7 7 7 6 6 6 6 5 4 4 4 3 3 3 3 3 3 3 3 4 5 5 6 6 9 7 9 10 10 10 11 7 7 8 9 10 9 10
6 7 7 5 7 8 8 11 12 10 11 10 16 13 8 8 7 8 7 9 11 13 13 12 13 9 6 6 6 6 6 5 4 4 3 3 3 3 3 4 4 3 4 3 4 4 5 5 6 9 7 9 10 11 11 12 10 13 9 9 10 9
4 5 5 5 5 6 7 11 12 11 12 16 13 6 5 7 8 9 11 12 12 13 12 12 10 7 6 7 6 6 5 5 5 4 4 4 3 3 3 3 3 3 3 3 3 4 4 4 4 7 8 7 10 10 11 12 13 13 9 9 8 8
7 5 4 5 6 6 9 10 12 12 14 15 7 9 10 11 11 12 12 13 14 14 8 7 7 7 6 6 7 7 6 5 5 4 4 4 4 3 3 3 2 3 3 3 4 3 3 4 4 4 6 9 10 10 11 12 13 14 13 9 8 9
3 4 7 5 6 7 8 8 10 13 18 7 7 9 11 12 12 12 13 12 11 9 8 9 6 6 6 6 6 6 5 6 6 5 4 4 4 4 3 4 3 3 3 4 3 4 4 4 4 5 5 6 7 7 9 13 13 13 11 12 10 14
7 9 9 10 8 8 8 10 10 13 4 5 7 9 10 11 13 13 12 12 8 7 7 9 8 7 6 6 5 5 5 5 5 5 4 4 4 4 4 4 4 4 4 4 3 3 4 4 4 5 5 4 4 5 7 8 8 8 9 8 6 7
10 11 10 11 8 9 9 10 12 12 8 5 8 10 10 11 12 12 15 15 8 8 8 8 10 9 7 7 8 7 6 5 6 6 6 6 5 5 4 4 4 5 4 3 3 3 4 5 5 5 5 5 5 6 6 7 7 4 5 2 5 2
11 12 11 12 7 9 11 13 12 10 10 8 9 10 13 12 12 10 11 9 6 7 7 7 7 8 7 7 7 6 6 6 7 6 4 4 2 3 4 4 5 4 3 3 3 3 5 5 6 5 6 7 9 9 8 7 6 6 3 6 8 2
11 11 12 11 5 8 11 12 11 9 10 8 10 11 12 11 9 9 9 7 7 6 7 7 7 6 6 5 6 5 4 6 8 6 5 4 8 13 13 10 6 5 4 5 5 6 6 6 7 10 11 12 12 13 14 13 13 12 8 10 7 3
10 9 10 10 7 9 9 9 9 9 10 11 11 12 11 10 8 7 6 7 8 8 7 6 5 5 5 4 4 4 4 3 5 13 15 13 10 11 13 15 17 16 16 10 7 9 17 19 18 17 14 13 14 14 14 13 11 10 8 11 5 3
8 11 15 9 7 8 8 9 8 9 10 11 10 10 10 11 9 8 8 8 6 6 7 6 5 5 5 4 4 4 4 4 3 4 11 16 15 15 15 16 16 17 16 17 14 10 8 11 14 14 13 14 14 14 13 11 8 5 8 8 4 3
11 9 8 6 7 7 7 8 8 6 8 10 10 11 11 11 10 8 5 5 6 6 6 6 6 6 6 6 6 5 4 4 4 4 2 5 10 11 12 12 14 14 14 14 14 14 13 10 8 11 12 13 13 14 12 8 3 6 6 4 2 1
8 8 8 7 7 8 7 8 7 7 8 8 9 11 11 10 10 9 6 6 7 7 7 7 6 6 6 5 5 4 4 4 4 3 2 2 2 4 7 11 13 11 8 8 8 9 9 9 11 12 13 13 14 13 9 2 2 3 1 1 2 2
6 6 7 7 6 6 7 9 4 5 7 8 9 10 9 9 8 4 5 9 8 5 5 5 5 5 5 4 5 5 5 4 3 3 4 3 4 4 3 2 3 6 6 5 6 7 9 11 12 12 12 12 14 6 1 3 1 2 2 1 2 3
6 7 5 5 5 6 7 5 2 5 7 8 9 9 10 7 6 5 5 5 7 5 4 4 4 4 5 5 5 4 4 4 5 4 4 4 4 4 4 4 3 2 3 7 9 10 11 12 12 11 10 13 8 3 2 2 3 2 2 2 2 3
Wind_Direction
186 187 186 182 176 173 170 167 168 166 159 153 148 145 144 140 135 131 128 129 126 128 125 125 126 126 122 118 114 113 109 103 99 98 97 99 82 70 64 53 47 44 33 41 22 21 10 6 1 349 345 339 352 349 353 3 349 340 336 340 342 328
186 187 184 178 176 177 176 170 172 173 163 155 149 141 141 139 138 139 137 135 131 129 132 137 133 127 123 123 125 116 108 105 105 102 97 87 80 73 63 58 49 40 36 27 28 8 7 7 3 357 354 350 5 355 356 353 348 343 337 341 342 334
187 185 178 175 175 177 177 177 179 173 167 166 159 153 152 150 148 147 143 141 140 144 147 143 137 131 125 123 120 112 105 102 95 89 94 99 83 74 74 68 52 38 30 24 18 13 5 6 2 1 356 356 357 351 347 342 341 338 335 334 330 333
182 171 165 169 177 183 185 182 178 176 178 173 167 163 163 159 159 156 151 151 152 156 149 143 137 134 129 129 122 108 105 99 98 107 128 121 112 103 83 71 59 31 20 20 12 7 6 358 356 356 351 350 343 339 340 330 332 329 329 328 324 334
179 175 174 179 187 188 187 184 185 182 181 177 177 173 171 168 164 159 159 158 159 157 150 144 139 139 142 130 115 106 108 116 129 146 151 140 130 114 74 39 40 23 18 14 6 356 353 350 347 345 342 336 334 325 327 326 325 326 328 329 328 331
176 173 179 185 191 190 187 185 186 185 185 183 179 181 174 170 168 165 164 164 161 155 149 145 143 147 141 122 115 128 143 157 157 154 145 131 105 94 70 54 24 20 7 358 353 346 341 343 340 331 331 327 326 324 322 324 323 322 321 322 322 325
188 190 188 188 187 185 186 187 188 188 189 185 184 185 180 175 172 171 172 168 160 158 152 149 153 147 136 128 140 156 161 170 160 144 128 113 100 72 67 45 36 6 358 352 344 331 335 337 330 328 323 325 321 318 318 317 321 318 316 316 317 318
190 187 188 186 187 186 185 188 189 191 191 191 186 185 180 177 171 177 174 170 164 161 157 158 156 147 140 146 159 169 171 163 151 135 113 96 99 91 85 45 11 15 346 339 326 315 320 323 321 317 315 316 320 314 315 314 314 317 316 315 312 312
195 197 189 185 184 185 187 187 189 191 191 189 187 186 178 174 176 179 176 173 170 164 164 165 158 147 151 164 170 168 167 152 134 128 118 113 112 112 116 56 37 325 337 313 315 308 315 309 307 305 313 315 316 317 317 318 312 309 308 302 306 304
195 189 190 186 184 184 187 189 191 191 189 187 185 187 182 176 178 178 179 175 176 172 167 163 150 150 159 163 162 165 157 145 139 131 128 132 148 133 126 166 315 275 300 299 295 298 300 299 298 308 312 315 317 315 315 310 307 306 301 299 300 296
197 195 190 186 181 183 186 188 192 190 189 191 190 185 186 175 177 181 179 181 182 177 164 151 146 150 156 161 163 165 159 149 142 142 140 145 142 127 143 240 239 274 271 275 280 285 292 286 293 318 327 323 315 311 305 302 300 300 302 300 299 295
195 189 187 183 183 185 186 189 189 187 189 196 192 184 182 171 184 180 181 186 187 170 160 153 150 161 162 166 172 168 155 152 155 156 152 150 138 139 142 212 252 258 271 282 282 285 276 277 274 291 296 300 302 304 300 300 296 296 296 298 299 298
189 181 181 188 190 190 184 189 187 192 198 197 193 186 180 175 181 182 182 190 181 164 157 156 163 162 170 172 169 159 155 159 163 160 152 149 146 167 176 218 226 239 258 261 279 281 275 266 264 286 299 302 301 300 296 293 293 290 291 290 294 297
193 193 194 194 195 193 190 191 193 193 199 197 193 184 168 176 181 182 186 187 168 167 165 166 161 166 168 166 167 160 157 155 165 168 160 157 165 180 178 219 222 248 244 254 264 270 268 275 275 293 301 301 299 299 297 291 289 287 286 290 292 297
199 197 195 194 194 195 197 192 184 196 200 194 190 161 166 180 180 181 185 178 171 171 170 165 165 166 166 172 162 155 151 162 176 173 167 174 167 177 195 204 221 232 238 250 260 272 273 271 281 293 299 299 299 299 297 289 284 284 284 289 292 294
196 196 195 194 195 196 199 192 196 202 193 179 154 165 176 177 178 180 181 169 175 171 169 167 162 167 169 163 159 157 164 173 191 178 173 162 178 189 197 205 220 230 240 250 264 272 273 275 279 292 296 298 297 296 296 288 287 284 285 285 287 289
199 200 202 204 203 200 187 190 203 187 164 162 168 174 169 177 172 178 175 172 175 168 169 168 171 170 162 161 162 166 175 184 185 178 183 180 186 184 196 200 210 226 243 251 257 271 276 269 275 289 295 294 295 296 300 292 286 284 281 281 281 285
198 198 204 202 191 193 192 198 188 175 176 160 168 168 173 171 173 176 167 171 176 176 176 170 171 167 164 163 168 172 185 190 191 189 181 177 183 185 190 208 210 230 239 250 254 262 269 268 275 289 290 292 295 301 300 287 282 280 279 284 279 281
193 198 182 178 190 191 196 186 164 164 150 160 173 165 173 170 176 179 178 179 179 179 177 175 169 168 166 167 169 182 190 187 190 191 177 179 188 185 193 199 211 224 238 245 246 254 267 274 277 283 289 294 297 302 290 285 278 277 278 279 280 281
171 168 179 185 191 194 181 162 161 160 160 171 167 169 176 177 188 181 175 186 181 178 174 177 168 163 168 168 183 183 189 188 190 184 186 185 179 190 190 203 214 226 230 238 245 248 263 272 277 284 292 294 293 293 289 282 277 278 279 282 277 278
167 167 172 176 186 187 164 155 154 152 170 171 171 174 174 190 192 182 186 189 177 175 172 167 167 170 165 174 184 175 182 184 190 178 175 186 177 186 191 204 221 229 246 238 246 258 261 267 274 283 289 290 288 289 280 277 280 279 280 284 282 275
135 153 173 187 190 159 154 152 163 176 175 172 162 174 192 199 197 192 182 165 160 167 164 169 166 170 168 173 170 171 183 178 174 181 183 177 183 180 189 206 218 228 254 259 252 251 252 259 266 272 284 286 287 284 281 279 276 278 279 280 279 274
175 179 184 185 161 153 160 159 157 175 182 165 173 197 205 203 188 164 166 162 160 166 166 168 175 164 171 167 164 170 176 187 185 171 178 178 184 176 195 210 235 237 248 252 252 256 255 244 258 268 279 285 286 283 279 273 271 278 285 290 291 290
188 175 173 170 154 154 159 160 174 184 172 172 198 209 208 184 162 159 160 162 171 166 162 166 165 164 154 151 158 171 181 185 174 173 175 188 173 178 204 216 230 236 247 252 251 253 258 255 254 263 274 283 285 282 277 273 279 283 291 293 294 295
192 205 195 160 155 165 165 173 184 189 183 191 212 209 180 158 157 162 165 163 167 171 172 164 160 161 152 159 175 167 174 163 169 177 173 177 176 190 209 222 223 229 242 244 252 254 254 260 259 262 274 279 280 279 280 284 287 292 293 292 291 297
202 204 181 160 166 172 172 179 191 190 191 212 217 162 141 156 160 149 167 179 178 159 169 169 159 149 161 165 166 176 171 174 169 176 193 182 191 199 208 224 204 223 233 240 251 251 259 258 260 267 273 276 277 281 288 292 293 294 291 291 299 310
202 200 186 179 175 182 184 195 193 195 205 223 177 169 171 166 162 170 178 178 174 173 161 152 169 164 165 166 167 172 179 171 170 189 190 181 200 203 217 228 208 225 239 244 248 253 251 255 261 272 279 284 283 284 292 297 296 296 298 303 305 305
199 197 210 202 185 191 194 199 200 198 219 190 164 171 152 159 166 178 189 184 173 172 151 158 161 164 169 173 184 190 188 175 180 198 183 186 196 193 207 227 216 222 228 236 241 244 249 258 273 278 280 280 279 282 293 302 300 297 297 304 305 306
205 217 217 221 194 194 198 202 212 221 213 150 156 150 163 170 177 184 173 171 171 162 164 171 174 171 172 182 187 195 196 191 187 189 192 195 198 197 203 211 212 224 223 228 232 243 252 267 267 278 280 271 278 288 289 285 289 291 305 304 298 307
207 218 216 226 211 188 193 201 216 221 208 160 153 160 164 176 185 186 181 173 164 172 177 184 176 173 177 185 185 186 190 195 194 193 197 192 191 189 206 198 213 218 218 221 225 235 260 263 268 273 265 269 277 275 284 297 298 294 309 287 313 96
209 218 215 227 203 183 201 213 219 215 201 180 149 164 169 186 194 196 180 167 166 180 178 185 172 189 181 176 187 208 198 184 187 198 214 215 198 206 209 216 223 220 216 215 220 235 266 262 266 260 259 268 279 291 296 293 295 308 314 315 326 89
213 217 222 231 196 198 205 214 214 205 189 172 164 166 181 189 172 182 182 177 184 177 171 190 188 188 186 177 185 188 227 236 219 208 201 217 214 225 232 227 227 214 202 212 223 213 239 254 270 268 270 285 293 290 287 289 296 303 311 317 343 47
221 229 237 236 214 211 212 214 211 196 184 171 164 179 190 179 179 190 185 172 196 186 179 176 176 177 184 184 180 183 195 205 223 227 227 225 225 228 231 235 239 240 235 221 236 237 242 250 256 259 277 289 287 285 287 292 298 305 319 324 340 327
225 224 231 230 217 218 214 218 211 198 186 179 180 183 188 189 186 192 193 184 183 159 180 185 171 166 178 187 183 186 186 205 226 226 222 227 234 237 241 244 247 249 253 253 250 256 268 271 272 274 276 277 281 283 286 290 301 341 330 325 6 307
217 225 238 239 225 222 219 220 217 180 172 178 179 180 194 198 202 204 175 162 165 177 166 175 177 185 182 180 179 183 187 196 203 223 205 188 210 236 248 252 251 255 257 255 256 259 263 268 272 272 276 278 280 282 282 292 20 346 334 329 307 269
231 229 228 227 224 221 217 226 215 183 183 175 178 187 199 200 204 208 195 179 172 172 180 186 189 183 186 183 178 179 178 197 200 204 196 218 234 213 234 246 255 256 256 259 259 264 269 278 279 280 278 278 277 280 279 43 27 326 306 1 259 269
239 240 233 227 223 220 221 232 210 165 163 168 176 184 195 199 196 189 189 180 177 185 184 183 186 182 173 168 176 175 180 193 193 189 190 202 217 241 235 210 221 230 246 265 280 282 274 276 275 272 273 274 278 280 36 12 321 276 233 220 216 243
231 241 231 222 224 225 232 232 111 147 144 160 171 181 177 176 173 176 179 164 178 185 188 181 181 177 175 175 178 171 178 178 181 183 196 196 209 225 246 266 247 239 258 271 273 268 272 272 269 266 267 271 272 103 53 282 272 258 242 241 243 241